Crane Lake, MN

12:08 AM CDT on July 21, 2017 (GMT -0500)
Crane Lake

Weather History for KCDD - June, 2013

Change the Weather History Date:

Thursday, June 13, 2013

  Actual Average Record
Temperature  
Mean Temperature 62 °F -  
Max Temperature 77 °F 68 °F 86 °F (2007)
Min Temperature 46 °F 46 °F 30 °F (2014)
Degree Days  
Heating Degree Days 4    
Growing Degree Days 12 (Base 50)    
Moisture  
Dew Point 45 °F    
Average Humidity 59    
Maximum Humidity 93    
Minimum Humidity 27    
Precipitation  
Precipitation 0.00 in - - ()
Sea Level Pressure  
Sea Level Pressure 30.13 in    
Wind  
Wind Speed 3 mph (North)    
Max Wind Speed 7 mph    
Max Gust Speed -    
Visibility 10 miles    
Events      
Averages and records for this station are not official NWS values.
T = Trace of Precipitation, MM = Missing Value Source: NWS Daily Summary

Daily Weather History Graph

Daily Weather History Graph

Search for Another Location

Airport or City:

Trip Planner

Search our weather history database for the weather conditions in past years. The results will help you decide how hot, cold, wet, or windy it might be!

Date:

Astronomy

Jun. 13, 2013 Rise Set
Actual Time 5:08 AM CDT 9:11 PM CDT
Civil Twilight 4:27 AM CDT 9:53 PM CDT
Nautical Twilight 3:29 AM CDT 10:51 PM CDT
Astronomical Twilight 1:48 AM CDT 12:33 AM CDT
Moon 10:04 AM CDT (6/13) 11:56 PM CDT (6/13)
Length of Visible Light 17h 25m
Length of Day
16h 02m
Waxing Crescent, 22% of the Moon is Illuminated
Jun 13
Waxing Crescent
Jun 16
First Quarter
Jun 23
Full
Jun 29
Last Quarter
Jul 8
New

Hourly Weather History & Observations

Time (CDT) Temp. Dew Point Humidity Pressure Visibility Wind Dir Wind Speed Gust Speed Precip Events Conditions
12:13 AM 55.4 °F 46.4 °F 72% 30.03 in 10.0 mi North 3.5 mph - N/A   Clear
12:33 AM 57.2 °F 50.0 °F 77% 30.03 in 10.0 mi North 3.5 mph - N/A   Clear
12:53 AM 57.2 °F 50.0 °F 77% 30.04 in 10.0 mi North 5.8 mph - N/A   Clear
1:13 AM 57.2 °F 48.2 °F 72% 30.05 in 10.0 mi Calm Calm - N/A   Clear
1:33 AM 55.4 °F 48.2 °F 77% 30.06 in 10.0 mi Calm Calm - N/A   Clear
1:53 AM 55.4 °F 46.4 °F 72% 30.07 in 10.0 mi North 5.8 mph - N/A   Clear
2:13 AM 55.4 °F 46.4 °F 72% 30.07 in 10.0 mi North 6.9 mph - N/A   Clear
2:33 AM 53.6 °F 46.4 °F 77% 30.08 in 10.0 mi NNW 4.6 mph - N/A   Clear
2:53 AM 53.6 °F 46.4 °F 77% 30.09 in 10.0 mi North 3.5 mph - N/A   Clear
3:13 AM 51.8 °F 46.4 °F 82% 30.09 in 10.0 mi NNW 3.5 mph - N/A   Clear
3:33 AM 51.8 °F 46.4 °F 82% 30.10 in 10.0 mi Calm Calm - N/A   Clear
3:53 AM 51.8 °F 46.4 °F 82% 30.09 in 10.0 mi Calm Calm - N/A   Clear
4:13 AM 50.0 °F 44.6 °F 82% 30.10 in 10.0 mi Calm Calm - N/A   Clear
4:33 AM 50.0 °F 46.4 °F 87% 30.11 in 10.0 mi North 4.6 mph - N/A   Clear
4:53 AM 50.0 °F 46.4 °F 87% 30.12 in 10.0 mi Calm Calm - N/A   Clear
5:13 AM 48.2 °F 44.6 °F 87% 30.12 in 10.0 mi Calm Calm - N/A   Clear
5:33 AM 48.2 °F 46.4 °F 93% 30.13 in 10.0 mi North 3.5 mph - N/A   Clear
5:53 AM 50.0 °F 46.4 °F 87% 30.14 in 10.0 mi NNW 3.5 mph - N/A   Clear
6:13 AM 50.0 °F 46.4 °F 87% 30.15 in 10.0 mi NNE 3.5 mph - N/A   Clear
6:33 AM 51.8 °F 46.4 °F 82% 30.15 in 10.0 mi Calm Calm - N/A   Clear
6:53 AM 53.6 °F 48.2 °F 82% 30.15 in 10.0 mi North 4.6 mph - N/A   Clear
7:13 AM 55.4 °F 48.2 °F 77% 30.16 in 10.0 mi Calm Calm - N/A   Clear
7:33 AM 55.4 °F 48.2 °F 77% 30.16 in 10.0 mi NNE 5.8 mph - N/A   Clear
7:53 AM 57.2 °F 48.2 °F 72% 30.16 in 10.0 mi North 4.6 mph - N/A   Clear
8:13 AM 57.2 °F 48.2 °F 72% 30.16 in 10.0 mi North 3.5 mph - N/A   Clear
8:33 AM 60.8 °F 50.0 °F 68% 30.16 in 10.0 mi Calm Calm - N/A   Clear
8:53 AM 60.8 °F 51.8 °F 72% 30.16 in 10.0 mi NE 4.6 mph - N/A   Clear
9:13 AM 60.8 °F 48.2 °F 63% 30.15 in 10.0 mi NNW 5.8 mph - N/A   Clear
9:33 AM 62.6 °F 50.0 °F 63% 30.15 in 10.0 mi North 3.5 mph - N/A   Clear
9:53 AM 64.4 °F 50.0 °F 59% 30.15 in 10.0 mi NW 4.6 mph - N/A   Clear
10:13 AM 64.4 °F 51.8 °F 64% 30.15 in 10.0 mi NNW 4.6 mph - N/A   Clear
10:33 AM 66.2 °F 50.0 °F 56% 30.15 in 10.0 mi North 6.9 mph - N/A   Clear
10:53 AM 66.2 °F 50.0 °F 56% 30.15 in 10.0 mi NNE 4.6 mph - N/A   Clear
11:13 AM 68.0 °F 48.2 °F 49% 30.15 in 10.0 mi North 5.8 mph - N/A   Clear
11:33 AM 69.8 °F 48.2 °F 46% 30.15 in 10.0 mi North 6.9 mph - N/A   Clear
11:53 AM 69.8 °F 48.2 °F 46% 30.16 in 10.0 mi NW 5.8 mph - N/A   Clear
12:13 PM 71.6 °F 48.2 °F 43% 30.15 in 10.0 mi NNW 6.9 mph - N/A   Clear
12:33 PM 71.6 °F 48.2 °F 43% 30.15 in 10.0 mi NNW 3.5 mph - N/A   Clear
12:53 PM 71.6 °F 48.2 °F 43% 30.15 in 10.0 mi North 4.6 mph - N/A   Clear
1:13 PM 73.4 °F 48.2 °F 41% 30.15 in 10.0 mi North 5.8 mph - N/A   Clear
1:33 PM 73.4 °F 44.6 °F 36% 30.15 in 10.0 mi NE 4.6 mph - N/A   Clear
1:53 PM 73.4 °F 46.4 °F 38% 30.15 in 10.0 mi NNE 3.5 mph - N/A   Clear
2:13 PM 75.2 °F 44.6 °F 34% 30.15 in 10.0 mi NNE 5.8 mph - N/A   Clear
2:33 PM 75.2 °F 46.4 °F 36% 30.15 in 10.0 mi ENE 4.6 mph - N/A   Clear
2:53 PM 75.2 °F 44.6 °F 34% 30.15 in 10.0 mi NNE 4.6 mph - N/A   Clear
3:13 PM 75.2 °F 46.4 °F 36% 30.15 in 10.0 mi NNE 4.6 mph - N/A   Clear
3:33 PM 77.0 °F 44.6 °F 32% 30.15 in 10.0 mi East 3.5 mph - N/A   Clear
3:53 PM 77.0 °F 44.6 °F 32% 30.15 in 10.0 mi NNE 3.5 mph - N/A   Clear
4:13 PM 77.0 °F 41.0 °F 28% 30.14 in 10.0 mi Calm Calm - N/A   Clear
4:33 PM 77.0 °F 41.0 °F 28% 30.14 in 10.0 mi Calm Calm - N/A   Clear
4:53 PM 77.0 °F 41.0 °F 28% 30.14 in 10.0 mi NNE 5.8 mph - N/A   Clear
5:13 PM 77.0 °F 41.0 °F 28% 30.13 in 10.0 mi Calm Calm - N/A   Clear
5:33 PM 77.0 °F 41.0 °F 28% 30.13 in 10.0 mi Calm Calm - N/A   Clear
5:53 PM 75.2 °F 39.2 °F 27% 30.12 in 10.0 mi NNE 3.5 mph - N/A   Clear
6:13 PM 77.0 °F 41.0 °F 28% 30.12 in 10.0 mi Calm Calm - N/A   Clear
6:33 PM 75.2 °F 41.0 °F 29% 30.12 in 10.0 mi NE 4.6 mph - N/A   Clear
6:54 PM 75.2 °F 39.2 °F 27% 30.12 in 10.0 mi Calm Calm - N/A   Clear
7:13 PM 75.2 °F 39.2 °F 27% 30.11 in 10.0 mi NE 3.5 mph - N/A   Clear
7:33 PM 75.2 °F 39.2 °F 27% 30.11 in 10.0 mi Calm Calm - N/A   Clear
7:53 PM 73.4 °F 39.2 °F 29% 30.12 in 10.0 mi Calm Calm - N/A   Clear
8:13 PM 71.6 °F 39.2 °F 31% 30.11 in 10.0 mi Calm Calm - N/A   Clear
8:33 PM 66.2 °F 39.2 °F 37% 30.12 in 10.0 mi Calm Calm - N/A   Clear
8:53 PM 62.6 °F 42.8 °F 48% 30.12 in 10.0 mi Calm Calm - N/A   Clear
9:13 PM 57.2 °F 42.8 °F 59% 30.12 in 10.0 mi Calm Calm - N/A   Clear
9:33 PM 55.4 °F 42.8 °F 63% 30.12 in 10.0 mi Calm Calm - N/A   Clear
9:53 PM 51.8 °F 42.8 °F 71% 30.13 in 10.0 mi Calm Calm - N/A   Clear
10:13 PM 51.8 °F 42.8 °F 71% 30.13 in 10.0 mi Calm Calm - N/A   Clear
10:33 PM 50.0 °F 42.8 °F 76% 30.13 in 10.0 mi Calm Calm - N/A   Clear
10:53 PM 48.2 °F 42.8 °F 82% 30.13 in 10.0 mi Calm Calm - N/A   Clear
11:13 PM 48.2 °F 44.6 °F 87% 30.14 in 10.0 mi Calm Calm - N/A   Clear
11:33 PM 46.4 °F 42.8 °F 87% 30.14 in 10.0 mi Calm Calm - N/A   Clear
11:53 PM 46.4 °F 42.8 °F 87% 30.14 in 10.0 mi Calm Calm - N/A   Clear